Theta_e
319 317 317 316 316 315 312 311 310 312 312 312 312 310 312 310 307 308 307 306 307 310 309 309 308 308 308 307 307 307 307 306 305 306 305 305 304 303 303 303 302 302
316 315 313 314 312 309 310 311 310 312 311 310 310 308 306 304 303 304 302 303 305 307 309 310 309 308 307 306 305 304 304 304 303 303 303 302 301 301 301 301 301 301
314 313 313 313 312 309 309 308 308 309 309 307 307 307 303 303 300 302 303 305 305 304 305 307 306 306 307 306 305 303 302 303 302 301 301 300 301 301 300 300 299 299
313 314 313 312 311 309 307 306 306 307 306 306 306 305 303 301 300 299 299 298 300 299 298 299 299 296 297 300 301 300 301 300 300 299 298 297 296 296 295 295 295 294
312 311 311 311 309 308 307 308 307 307 308 306 302 300 299 298 297 296 294 294 295 294 294 294 293 293 295 296 297 296 296 295 295 296 294 293 294 295 293 293 291 291
308 309 309 309 307 307 307 308 307 307 305 303 302 299 299 297 295 293 293 292 291 292 291 290 290 290 291 291 292 291 290 290 287 290 291 292 292 292 293 290 288 286
308 308 307 307 306 307 307 306 306 304 305 302 297 296 294 294 293 293 292 291 291 291 291 290 290 288 289 290 289 288 288 288 288 290 291 291 290 287 285 285 284 284
307 307 307 307 307 306 305 304 303 302 299 297 297 291 294 293 292 290 289 290 291 290 290 290 291 292 290 291 292 292 291 293 291 291 289 285 284 285 285 285 285 285
306 305 305 305 304 302 301 300 298 297 297 297 294 291 290 292 290 289 290 290 291 292 293 294 294 292 292 293 293 292 291 288 287 286 284 284 284 284 285 284 284 284
303 302 302 301 301 298 297 295 295 295 295 295 292 291 290 288 289 289 290 292 292 291 291 291 290 290 290 290 290 289 287 285 285 285 285 285 284 284 284 284 283 284
300 300 300 299 297 295 293 292 293 293 293 293 291 291 290 289 288 290 290 291 290 289 288 288 287 288 288 286 286 285 285 285 285 284 284 283 283 284 284 284 283 283
298 298 298 296 293 292 292 292 292 292 292 291 292 290 288 288 288 289 289 288 287 286 286 286 286 286 286 285 285 284 284 284 284 283 283 283 283 282 283 283 283 283
296 296 295 293 292 291 291 291 291 291 291 290 289 289 287 286 286 286 286 286 286 286 286 286 285 285 284 284 284 284 284 283 283 282 282 282 283 283 283 283 283 283
292 292 292 292 291 290 290 290 290 290 290 288 288 288 288 287 287 286 285 285 285 285 285 285 285 284 284 284 284 284 283 283 283 284 284 283 283 283 283 282 282 282
290 290 290 290 290 290 290 289 289 288 287 287 287 287 287 287 287 286 286 285 285 285 285 285 286 285 285 285 284 283 283 284 284 284 283 283 283 282 282 281 281 281
290 290 290 290 290 290 289 288 288 287 286 287 286 286 286 286 286 286 286 285 285 284 284 285 285 285 286 287 287 285 284 284 283 283 283 282 282 282 281 281 281 280
289 289 289 290 290 289 288 287 287 287 287 286 285 285 286 285 285 285 284 284 284 284 285 285 286 287 289 291 290 288 285 284 283 282 282 282 281 281 281 280 280 280
289 289 289 289 288 288 287 286 286 286 286 286 285 285 284 284 284 284 284 283 284 284 285 285 286 289 291 290 289 288 286 283 283 282 282 282 282 281 281 280 279 279
289 289 289 288 287 287 286 286 286 286 285 285 285 284 284 284 283 283 283 283 283 284 284 285 287 291 291 290 289 288 287 284 283 283 282 282 282 281 280 280 279 279
288 288 287 287 286 286 285 285 286 286 285 285 284 283 283 283 282 282 282 282 283 284 284 285 286 289 290 289 288 288 287 284 282 282 282 282 281 280 280 279 279 278
287 287 286 285 285 285 285 285 285 284 284 283 283 283 283 282 282 281 281 282 282 283 284 285 286 289 289 289 288 287 286 284 282 281 281 280 280 280 280 279 277 278
287 286 286 285 285 284 285 284 284 284 283 282 282 282 282 282 281 281 281 281 282 283 284 284 286 288 288 287 287 286 284 281 281 280 280 280 279 279 279 278 277 277
286 286 285 285 284 284 284 284 283 282 282 282 281 281 281 281 281 280 280 280 281 282 283 283 284 286 286 286 285 284 282 280 279 279 278 278 278 278 278 278 277 276
286 286 285 284 284 284 284 283 283 282 281 281 281 281 280 280 280 279 279 280 280 281 282 282 283 284 285 285 284 283 281 279 278 277 277 276 276 277 276 275 276 278
286 286 285 285 284 285 284 283 282 282 281 281 281 281 280 279 279 279 278 278 279 280 281 282 282 284 285 284 283 282 279 278 277 276 275 275 276 275 274 273 274 276
285 285 285 285 284 283 283 282 281 280 280 280 280 280 279 279 279 279 278 277 277 278 279 280 281 282 283 284 283 282 280 277 276 276 275 275 276 275 271 271 273 274
Wind_Speed
10 9 10 10 9 8 9 9 7 8 7 6 8 6 7 5 5 5 5 4 4 6 6 6 7 6 7 6 5 4 4 4 4 3 5 5 5 5 5 4 4 4
11 10 8 8 7 6 6 8 9 9 9 8 7 7 5 7 4 6 7 5 4 4 4 6 6 6 7 5 5 4 4 4 5 2 6 5 5 6 6 5 4 4
9 9 10 10 9 9 8 7 7 7 8 7 6 7 7 6 7 5 5 6 6 5 4 6 6 5 6 6 5 5 4 4 5 4 6 4 5 6 5 5 5 5
10 11 10 9 8 9 7 8 6 6 6 7 7 7 8 6 7 6 6 6 7 5 5 5 6 5 5 6 6 4 4 5 4 6 6 5 5 5 5 5 5 5
11 9 7 7 7 7 8 9 9 8 9 8 7 7 7 7 7 6 6 5 6 6 5 6 5 6 6 6 6 6 5 5 3 5 6 5 4 5 4 5 5 5
6 7 8 9 9 9 8 9 9 9 9 9 9 7 7 7 7 7 7 7 6 6 6 6 7 5 6 7 5 5 5 5 3 5 6 6 5 5 4 4 5 5
9 8 8 7 8 9 10 9 8 9 9 9 8 7 7 7 7 7 7 7 7 6 7 7 7 6 5 6 7 6 5 6 5 6 7 5 6 5 4 4 4 5
9 7 9 8 9 9 9 9 9 8 9 8 8 6 7 8 8 6 7 7 8 6 6 7 7 7 6 6 7 7 6 5 6 7 7 6 6 6 4 4 4 5
9 8 8 10 10 8 9 9 8 8 8 10 8 7 4 7 8 7 7 7 7 7 7 6 6 6 5 6 6 7 7 6 6 7 8 7 7 5 4 3 4 4
9 8 9 9 10 8 9 7 8 8 6 8 8 7 8 5 7 8 8 7 8 7 6 6 6 5 5 5 7 8 8 8 7 6 6 7 7 6 4 4 4 5
8 8 9 8 8 7 8 8 8 7 7 9 8 8 7 8 6 6 8 7 8 8 7 7 7 7 8 7 6 6 8 8 7 7 6 6 5 5 4 4 5 6
8 7 8 8 8 7 8 8 8 7 8 7 8 9 7 7 9 6 7 8 8 8 9 8 7 6 8 8 8 7 7 7 7 7 7 6 6 6 6 5 5 5
7 7 8 7 7 8 7 7 7 7 8 8 6 9 9 8 6 8 6 10 9 8 8 8 7 7 7 7 7 8 8 8 9 8 8 7 6 6 5 4 4 4
6 6 7 7 7 7 7 7 7 7 7 7 7 8 8 9 10 10 8 8 7 7 6 6 7 7 6 7 7 8 8 9 8 8 8 7 6 5 4 4 4 4
6 5 6 8 8 8 8 8 7 7 7 7 6 7 6 6 7 9 9 7 6 6 6 5 6 7 7 8 9 8 9 10 8 8 8 8 6 5 4 3 3 4
7 7 7 7 8 8 8 8 8 8 8 8 7 7 7 7 8 7 7 8 8 6 5 5 5 4 7 9 7 9 9 9 8 7 7 7 7 6 4 3 4 4
7 7 8 8 8 8 8 9 9 8 8 8 8 8 9 8 9 8 7 6 7 7 7 5 5 5 11 10 12 12 10 9 9 7 6 6 5 6 6 5 4 4
7 8 8 8 8 9 9 8 8 9 9 9 9 9 8 8 9 8 7 6 6 6 6 6 6 8 11 12 12 12 10 9 8 8 6 6 6 6 5 5 4 4
8 9 8 8 8 8 8 8 9 9 9 10 10 8 8 9 8 8 7 6 7 8 7 6 6 10 12 13 13 13 13 9 7 6 7 7 6 6 5 5 4 4
8 8 8 8 7 8 8 9 9 9 8 7 8 8 9 9 8 8 7 7 7 7 7 6 6 10 13 13 13 13 13 9 6 7 7 7 6 5 5 4 4 3
8 8 8 8 8 8 8 8 9 8 8 8 8 9 10 10 10 9 7 7 6 7 7 7 6 12 13 13 13 13 13 10 7 7 7 7 6 5 5 4 3 3
10 9 9 9 9 9 9 9 9 9 10 8 8 7 6 7 6 6 8 8 6 7 8 8 7 13 13 13 14 13 13 7 7 6 5 6 5 5 4 3 3 3
10 11 10 10 10 10 10 10 10 9 8 7 9 8 9 8 8 7 6 8 8 7 9 8 7 11 13 13 13 14 9 7 6 6 5 5 5 4 4 3 3 3
10 11 11 11 11 12 11 9 7 6 8 7 10 11 9 8 8 7 6 5 7 7 7 9 7 10 13 12 13 12 9 7 6 7 5 4 5 4 3 3 3 4
9 9 10 11 11 10 10 11 10 10 7 7 7 7 8 8 7 8 7 5 4 6 8 9 8 10 13 13 13 13 8 5 6 6 7 4 4 3 2 2 1 2
7 9 9 10 10 8 8 8 8 8 9 8 7 7 9 7 7 7 9 6 5 6 6 6 8 7 10 14 13 13 11 6 5 7 6 6 4 4 3 1 1 1
Wind_Direction
194 188 189 188 193 189 178 178 182 179 182 173 179 178 174 160 150 145 142 142 144 146 153 137 120 108 112 111 105 96 103 107 88 91 87 98 92 99 105 102 79 93
193 187 187 185 184 180 180 178 176 176 177 178 178 162 151 141 151 151 150 136 129 129 126 120 125 137 139 131 120 109 110 112 98 122 98 95 108 99 97 96 96 84
186 185 183 184 183 179 175 174 170 174 171 172 155 152 143 145 126 144 138 132 121 113 109 115 120 125 126 129 126 127 146 118 111 108 92 90 82 85 76 80 74 70
190 188 185 184 175 172 163 156 160 154 144 148 160 149 143 141 132 130 125 121 114 111 107 108 126 116 119 110 110 114 105 103 122 117 106 83 83 94 81 86 81 71
184 182 180 174 169 159 156 160 161 161 160 152 133 136 132 135 130 124 118 110 117 118 114 111 93 81 106 106 124 124 120 115 109 105 100 93 71 80 75 80 76 72
181 178 172 166 162 158 163 165 162 155 144 142 150 142 140 138 134 132 131 125 124 126 119 116 112 100 112 117 115 115 125 115 97 104 100 99 81 67 77 86 97 97
170 165 163 158 157 164 160 159 154 150 150 144 133 143 139 137 135 135 133 133 133 133 132 132 126 109 123 121 115 113 107 116 117 106 107 104 104 87 68 80 84 85
162 159 155 154 155 156 151 150 149 147 138 135 137 145 143 133 129 130 134 138 134 131 133 131 125 126 134 127 127 123 119 115 112 112 114 100 89 89 70 76 78 89
151 152 149 152 148 149 147 145 140 134 142 136 135 135 120 130 137 140 140 137 133 139 134 127 125 125 131 126 127 128 125 117 118 117 105 111 99 100 105 119 107 101
147 145 145 147 147 147 143 140 136 137 138 128 132 130 126 121 136 138 140 139 135 130 125 126 126 126 124 125 135 139 136 130 121 111 111 108 119 129 131 120 114 97
142 146 143 142 138 138 138 136 136 133 131 131 130 128 134 134 134 137 135 140 141 139 136 137 138 141 135 131 131 133 131 124 118 117 117 118 121 122 114 104 84 87
143 142 141 138 135 133 138 139 137 136 134 132 136 135 137 142 141 145 145 140 128 113 102 108 122 135 141 145 143 138 123 118 119 113 112 112 109 93 90 89 104 113
145 141 135 133 135 135 134 136 136 136 135 136 137 137 138 125 129 126 131 114 105 117 144 150 151 149 148 143 137 133 125 118 113 100 94 89 81 91 96 110 119 129
138 133 132 132 130 132 134 131 127 126 124 126 131 133 136 138 137 119 106 88 120 115 135 146 148 148 145 139 135 132 122 106 103 107 102 95 97 93 96 104 109 107
129 126 124 128 132 131 131 130 127 123 122 124 124 119 119 128 128 122 124 127 129 140 147 153 147 146 145 141 130 118 110 110 107 109 113 115 111 106 107 110 103 91
134 133 135 135 137 138 135 132 129 131 130 127 123 122 125 128 120 115 124 136 138 138 136 136 137 137 141 135 128 128 120 111 107 111 121 127 128 126 119 107 97 86
140 141 141 145 142 135 137 139 140 140 136 131 131 136 135 130 123 126 132 140 141 140 137 135 132 133 130 120 118 113 114 117 121 124 125 129 135 130 121 108 89 83
149 146 148 147 146 149 149 145 140 138 137 137 137 137 134 125 128 135 137 140 134 132 131 133 131 133 126 122 118 117 118 120 124 128 133 133 132 120 115 111 104 96
153 155 154 154 157 149 144 143 143 140 141 146 147 143 132 134 138 137 143 141 139 136 132 131 124 129 124 122 123 124 124 118 121 127 125 130 119 112 111 112 113 107
158 156 154 154 147 146 147 148 150 151 147 141 135 135 135 134 139 141 141 143 143 137 128 127 122 126 122 123 125 125 123 118 117 116 113 108 105 104 104 99 100 102
158 157 154 152 152 151 152 153 150 143 145 149 147 145 147 150 151 148 146 141 140 134 126 121 126 123 119 120 121 121 119 114 112 106 97 91 90 94 95 95 95 92
163 160 156 157 157 157 157 156 153 155 151 149 137 127 121 124 121 131 142 144 143 136 125 121 123 122 120 120 120 118 115 109 112 106 101 102 92 92 93 90 91 84
168 162 162 164 163 160 162 159 156 154 151 147 136 140 142 146 147 146 147 144 144 140 128 124 123 123 120 120 119 119 112 109 104 107 106 107 95 87 92 81 75 75
170 167 164 165 167 169 164 158 148 142 151 155 148 148 147 149 141 134 139 144 143 141 138 131 129 127 124 122 121 122 120 119 121 117 111 100 96 87 84 72 60 60
166 164 165 167 170 169 163 159 161 157 148 140 137 133 134 135 139 136 134 128 130 132 133 128 128 132 130 125 120 120 115 111 123 119 116 114 113 104 87 94 26 23
161 164 167 169 168 155 152 153 143 141 149 141 133 133 136 138 137 138 136 134 134 131 130 130 130 132 135 130 125 125 127 123 127 123 134 144 140 128 99 29 106 309